Theta_e
297 297 299 300 301 303 305 307 309 310 310 312 315 321 324 325 325 326 326 327 326 326 326 326 325 324 324 324 324 323 323 323 324 324 323 323 322 322 321 321 320 320
294 296 297 298 299 301 302 304 307 309 310 311 312 315 321 325 325 325 326 325 325 326 326 326 326 325 324 324 324 323 323 323 323 324 323 323 323 322 322 322 322 322
293 293 295 296 298 299 301 303 306 308 310 311 312 313 316 321 324 325 326 325 325 326 326 326 326 325 325 324 324 324 323 323 323 324 323 323 323 323 323 323 322 322
291 292 294 296 298 299 300 301 303 305 307 309 311 313 314 318 321 323 325 322 325 324 324 325 325 326 325 325 324 324 324 324 324 324 323 323 323 323 323 323 322 322
291 291 293 295 296 298 299 298 299 302 305 307 310 312 312 314 317 320 323 324 325 323 322 323 325 325 326 325 325 324 323 324 324 324 323 323 323 323 324 323 323 322
291 292 293 293 294 295 296 297 298 299 301 303 306 309 312 314 315 316 318 322 324 325 324 324 323 322 324 325 325 324 324 323 324 324 323 323 323 324 324 323 323 322
290 291 292 292 292 293 295 296 297 297 299 301 304 305 309 311 312 314 316 318 320 322 324 324 323 322 323 325 324 324 324 324 324 323 323 323 322 322 323 323 322 322
289 291 292 292 291 292 293 295 295 296 298 299 302 304 305 307 311 313 314 315 317 320 321 324 325 325 324 323 321 321 323 324 323 323 322 321 321 321 322 322 322 321
288 289 291 291 291 292 292 293 294 295 297 298 300 302 304 305 308 311 313 314 314 316 319 321 322 324 324 321 320 321 322 323 323 322 321 321 321 321 321 322 321 320
288 288 289 289 290 291 292 292 293 294 295 296 297 300 302 304 306 308 310 312 314 315 316 318 321 321 321 321 321 320 321 322 322 322 322 322 321 321 321 321 320 320
287 288 288 288 289 290 291 292 292 293 294 294 296 297 299 302 304 305 307 309 311 313 315 316 317 320 321 321 322 322 322 322 322 322 322 322 322 322 315 321 320 320
286 287 287 287 288 289 291 292 292 292 292 293 294 295 296 299 302 303 304 306 308 310 312 313 316 317 317 317 319 320 322 322 321 321 320 321 321 321 322 322 321 321
285 286 287 287 288 289 290 291 291 291 292 292 293 293 294 296 299 302 304 306 307 308 310 312 313 314 315 317 317 318 319 318 318 319 319 320 321 322 322 322 321 321
286 286 286 287 288 289 289 290 290 291 291 292 292 292 293 295 297 299 302 304 305 305 306 308 309 311 312 312 313 314 314 314 315 315 314 315 315 318 318 318 319 318
286 286 287 287 288 288 288 289 289 290 291 291 291 292 294 295 297 298 299 301 302 304 304 305 306 308 311 311 311 312 313 312 313 313 313 313 314 313 313 314 315 315
285 285 286 287 287 287 287 288 288 289 290 290 291 292 293 294 295 295 296 297 300 302 303 304 304 306 301 297 297 304 309 311 311 311 312 311 310 309 310 312 315 316
284 285 285 286 286 287 287 287 288 288 289 290 291 291 292 293 294 295 295 296 298 300 301 303 304 304 296 298 297 296 299 304 307 309 310 308 309 311 312 312 313 314
284 284 284 285 286 286 286 287 287 288 288 289 290 290 291 292 293 294 295 296 298 298 300 301 301 297 297 296 296 295 294 298 302 304 306 307 305 305 305 306 306 308
284 284 284 284 285 285 286 287 287 287 287 288 289 290 290 291 291 293 293 295 295 296 296 298 300 296 295 295 294 294 294 295 300 302 302 303 301 302 302 302 302 302
283 283 283 284 284 285 285 286 286 287 287 288 289 289 289 290 290 291 292 294 294 294 295 295 295 294 295 294 293 293 294 294 298 300 300 298 299 298 297 297 297 297
283 283 283 284 284 284 284 285 286 287 288 288 288 288 288 289 289 290 291 292 294 294 294 293 295 295 295 294 293 294 294 293 297 299 298 296 292 291 292 293 293 294
283 283 283 283 283 283 284 284 285 286 286 287 287 287 288 288 289 289 290 291 292 293 293 292 292 294 294 294 293 293 294 293 296 297 292 290 289 288 289 289 289 290
283 283 282 282 283 283 283 284 284 285 286 287 286 287 286 286 287 288 290 290 291 291 292 292 292 291 291 292 292 293 292 292 292 291 290 290 288 288 288 288 288 288
283 283 282 282 282 282 283 284 284 285 285 286 286 286 285 286 287 288 289 290 290 290 291 291 291 290 290 291 291 291 289 289 291 291 289 289 288 288 288 288 288 286
283 282 282 282 282 282 283 283 284 284 285 286 286 286 285 286 286 287 288 289 289 289 288 289 290 289 290 290 289 290 288 289 290 290 289 288 288 288 288 287 288 288
282 282 282 282 282 283 283 283 284 284 285 286 286 285 285 285 286 286 287 288 289 289 289 289 289 289 289 290 290 290 290 289 290 290 289 289 288 288 288 288 287 288
Wind_Speed
15 14 13 13 13 12 13 14 12 14 14 13 13 12 11 10 10 9 9 10 11 12 13 14 14 14 13 14 14 14 13 13 12 11 12 13 14 15 14 15 15 13
18 17 15 13 12 12 13 14 14 13 13 14 14 14 13 11 11 9 9 10 11 12 13 13 14 14 14 13 13 13 13 14 15 11 12 14 13 14 16 17 16 15
17 18 18 17 15 16 16 14 14 13 12 13 14 14 13 12 11 11 10 9 10 12 14 13 14 14 14 14 14 14 13 14 15 14 14 15 13 12 13 14 13 15
16 16 15 16 16 16 15 15 14 13 14 13 12 13 13 13 13 13 11 11 10 11 11 11 12 12 13 14 15 14 15 14 14 13 13 13 14 14 14 12 13 13
17 16 14 14 15 16 15 15 16 15 15 15 14 12 12 13 14 14 13 12 11 11 11 12 14 14 13 13 14 13 14 13 14 13 13 13 13 13 12 12 13 14
17 16 14 14 14 15 15 15 15 16 17 16 16 15 13 12 13 14 15 15 12 11 12 13 12 12 12 12 13 14 13 13 13 14 14 13 12 11 9 10 12 13
18 17 18 15 16 15 14 14 14 15 15 15 14 14 15 14 13 14 14 13 14 14 13 13 13 14 14 14 12 11 12 12 13 13 14 13 10 10 11 10 10 11
17 16 15 15 17 16 15 14 14 14 15 15 14 13 13 15 15 13 12 14 13 13 15 13 13 13 13 13 13 15 15 12 12 13 13 12 12 14 13 12 14 15
15 15 16 16 17 16 16 16 15 15 14 14 15 14 12 12 14 14 14 14 13 12 11 12 12 13 12 12 11 11 12 13 12 13 13 13 14 14 14 13 12 11
16 15 16 16 17 15 17 17 16 15 14 14 14 14 14 12 12 14 15 14 13 12 12 11 13 13 13 13 13 13 15 14 14 14 15 15 15 15 14 13 12 12
17 16 15 16 17 15 17 16 16 15 14 15 14 15 15 14 12 11 12 12 12 12 12 11 12 12 13 14 14 13 16 17 17 16 16 15 15 14 13 12 13 14
15 16 17 17 16 15 16 16 15 15 15 15 14 16 16 14 13 11 10 12 12 12 12 12 11 10 10 9 11 10 12 16 14 13 11 12 13 13 13 12 12 12
13 14 15 16 15 14 14 14 15 15 15 15 15 15 15 15 13 13 11 10 11 11 11 11 12 11 9 8 7 10 11 8 8 12 15 15 14 13 12 12 12 11
13 13 14 14 14 14 14 14 14 15 14 14 13 15 14 14 14 14 13 10 10 11 12 11 10 11 10 9 6 7 5 5 4 5 4 3 3 5 6 6 6 6
13 12 12 13 13 14 14 14 14 14 14 14 13 13 12 13 13 13 13 13 11 10 11 10 9 9 8 8 8 7 6 3 4 5 5 5 5 4 3 3 4 5
14 13 14 13 13 14 14 14 13 14 14 14 14 13 13 12 13 12 11 12 12 11 10 9 9 7 9 13 12 8 7 5 4 3 3 3 3 4 4 4 5 5
14 14 13 14 13 13 14 14 14 13 14 14 14 14 13 12 12 13 12 11 10 10 10 9 8 8 13 12 11 11 7 6 5 4 3 3 4 7 8 8 8 9
14 14 14 13 13 14 14 14 13 13 14 14 14 15 14 11 11 12 12 11 10 9 9 8 8 9 11 9 9 9 6 4 4 4 4 3 3 2 2 3 4 4
14 15 14 13 12 13 14 14 14 14 14 13 15 15 14 14 12 11 11 11 10 9 9 9 8 7 5 7 7 6 6 4 3 3 3 4 3 4 4 3 2 2
14 14 14 13 11 13 14 14 13 13 13 12 12 14 14 14 14 13 11 10 10 9 9 8 7 8 9 7 8 6 5 4 3 3 3 2 2 1 1 1 2 2
13 14 14 13 12 12 14 14 13 13 13 12 12 13 14 14 13 14 13 9 8 8 8 8 7 11 10 9 9 8 6 5 4 4 3 1 0 0 0 0 1 1
13 14 13 13 13 13 13 14 13 12 13 13 12 12 12 12 12 10 11 12 10 7 8 9 7 10 8 7 8 7 8 5 5 3 2 1 1 1 1 0 0 1
12 13 14 14 13 13 14 13 12 14 13 10 12 13 13 14 13 12 11 11 12 9 7 7 7 5 7 8 8 8 7 6 2 1 1 2 1 1 1 1 1 1
12 13 14 14 13 13 12 12 13 12 12 10 11 13 14 14 13 13 13 10 9 11 8 7 8 7 10 9 5 7 6 6 3 1 0 0 0 1 1 1 1 1
12 13 14 14 12 11 11 14 14 13 12 11 10 10 11 12 12 11 13 13 9 8 10 9 8 7 6 3 4 6 4 4 3 1 1 0 0 1 0 1 1 2
12 13 13 11 11 13 13 13 12 12 12 12 12 10 11 11 12 11 12 13 12 9 8 7 8 7 5 5 4 5 5 3 4 3 2 2 1 1 0 0 1 2
Wind_Direction
339 337 330 324 321 317 314 311 307 306 304 302 297 293 280 271 257 247 223 224 236 233 217 214 210 211 214 217 219 224 229 232 232 224 220 215 214 209 209 208 209 213
339 337 333 328 322 321 318 314 308 302 300 300 299 296 290 280 274 261 246 219 220 225 227 219 212 210 210 211 212 217 221 222 227 226 225 220 217 213 215 211 209 210
338 337 337 334 328 323 320 315 312 308 301 299 298 297 293 289 278 267 263 247 226 231 227 223 217 210 209 210 211 213 219 220 222 219 221 224 222 219 218 213 213 208
336 336 332 331 329 325 323 321 317 313 310 304 301 301 300 296 291 281 265 254 241 229 241 242 234 222 209 209 211 214 216 219 220 218 218 220 220 220 218 213 214 211
331 332 331 330 330 328 325 324 324 319 314 311 303 297 297 299 299 294 281 262 251 242 233 235 233 230 219 211 210 215 215 217 217 216 217 218 217 216 216 213 212 214
328 328 328 329 329 329 327 324 323 324 320 315 315 314 305 299 297 295 294 287 267 244 232 222 229 241 247 233 218 215 214 214 214 212 216 219 217 214 215 213 214 218
328 326 325 327 329 328 324 323 321 321 320 315 309 309 309 304 299 297 295 291 288 271 247 236 229 225 227 227 226 223 216 213 212 211 215 216 213 213 214 210 215 220
326 322 321 324 327 327 325 324 324 322 319 316 312 307 310 307 302 297 293 293 286 280 271 252 234 226 223 222 222 224 222 213 212 209 210 208 214 220 214 210 209 207
323 322 321 323 325 326 325 325 324 322 320 318 315 309 304 303 305 303 298 293 288 282 278 269 256 246 235 229 226 233 230 221 214 211 210 211 215 216 214 213 215 216
323 322 322 323 323 323 322 323 323 322 321 319 318 314 308 302 301 304 304 301 294 289 284 280 272 256 243 236 223 214 228 225 218 214 211 212 210 209 211 209 205 209
320 322 322 322 321 320 320 321 321 322 321 321 320 317 314 308 302 301 300 300 303 302 298 287 279 276 260 240 230 221 220 221 218 211 209 209 206 207 209 210 210 213
317 319 320 320 318 317 318 318 319 320 320 319 320 318 315 310 302 298 295 298 297 298 299 299 294 281 278 277 263 252 235 222 212 214 217 214 208 208 207 205 210 213
312 314 315 315 315 314 314 315 316 318 318 318 318 316 313 309 308 302 295 294 298 301 297 296 296 297 288 265 253 260 260 255 236 227 214 209 208 205 207 206 205 207
307 309 310 310 311 311 311 310 312 315 316 315 315 315 313 309 308 308 305 296 295 296 294 294 295 295 296 296 278 263 259 253 252 268 270 261 227 206 199 205 213 217
306 307 306 306 309 311 311 311 311 313 313 314 313 311 309 308 307 308 308 305 296 291 294 295 295 292 290 293 299 306 301 270 228 220 223 214 213 221 209 202 207 210
304 303 303 304 308 311 311 310 311 312 313 314 314 312 310 310 310 308 306 304 301 296 293 298 299 296 299 309 315 313 304 308 309 278 239 224 221 219 221 221 225 227
302 301 301 303 306 308 310 310 311 313 313 313 314 315 314 312 310 310 308 303 302 300 297 295 295 299 312 326 330 337 330 310 306 309 316 295 259 235 236 232 232 232
299 299 299 300 305 309 309 310 309 311 312 313 316 317 318 314 310 309 308 308 306 303 299 294 290 293 304 318 329 331 343 322 316 311 296 277 272 264 246 225 220 223
297 297 297 299 304 307 308 308 310 310 312 315 317 317 315 315 312 308 306 307 308 310 308 304 298 297 299 304 296 297 307 313 298 294 291 297 311 315 312 309 307 296
295 296 297 299 302 306 307 306 307 308 309 310 311 314 314 312 313 310 303 301 302 301 300 297 298 297 287 279 270 266 263 252 259 256 251 264 278 344 2 2 347 325
295 296 299 301 305 306 305 303 304 307 311 314 313 311 311 310 310 311 308 302 299 303 304 300 296 294 277 270 277 281 273 258 246 239 227 191 100 106 98 255 291 278
296 297 297 301 305 304 301 301 303 307 312 314 311 308 305 303 301 299 300 304 301 296 295 293 289 300 303 286 289 291 286 271 255 209 158 152 138 124 133 148 223 232
297 298 298 300 302 300 299 300 306 311 310 311 306 305 305 306 305 304 300 298 299 296 285 281 286 294 310 299 298 305 300 280 260 210 170 158 154 157 127 97 65 355
299 298 297 296 298 295 297 302 305 303 299 304 302 304 304 302 303 304 301 294 287 290 285 290 288 281 282 281 293 313 308 287 267 252 336 73 93 68 67 76 64 27
297 296 294 292 292 297 303 304 302 299 298 299 295 293 290 295 299 297 297 296 288 279 286 283 280 280 275 260 288 308 300 278 256 175 211 226 176 10 69 64 8 75
295 290 287 290 299 303 302 295 293 295 295 296 295 293 293 294 294 293 292 292 295 293 286 279 282 283 276 289 284 298 299 284 280 203 208 213 176 167 96 355 43 24